This is the latest recevied weather packets stored in our database for station/object SR5NLK-1. If no packets are shown the sender has not sent any weather packets the latest 10 day(s).
| Time | Temp. | Humidity | Pressure | Rain* | Wind** | Luminosity | Snow |
|---|---|---|---|---|---|---|---|
| 1777630209 | 19.44° C | 34% | 987.9 hPa | 0 mm | - | - | - |
| 1777629909 | 18.89° C | 34% | 982.3 hPa | 0 mm | - | - | - |
| 1777629609 | 18.89° C | 34% | 993.5 hPa | 0 mm | - | - | - |
| 1777629009 | 18.89° C | 34% | 1015.6 hPa | 0 mm | - | - | - |
| 1777628888 | 18.89° C | 34% | 985.3 hPa | 0 mm | - | - | - |
| 1777628409 | 19.44° C | 34% | 990 hPa | 0 mm | - | - | - |
| 1777628109 | 19.44° C | 34% | 984.2 hPa | 0 mm | - | - | - |
| 1777627809 | 19.44° C | 34% | 1025.5 hPa | 0 mm | - | - | - |
| 1777627509 | 20° C | 34% | 1009.9 hPa | 0 mm | - | - | - |
| 1777627209 | 20° C | 34% | 1009 hPa | 0 mm | - | - | - |
| 1777626917 | 19.44° C | 35% | 988.1 hPa | 0 mm | - | - | - |
| 1777626908 | 19.44° C | 35% | 988.1 hPa | 0 mm | - | - | - |
| 1777626609 | 18.89° C | 34% | 993.2 hPa | 0 mm | - | - | - |
| 1777626309 | 19.44° C | 34% | 979 hPa | 0 mm | - | - | - |
| 1777626009 | 19.44° C | 33% | 986.7 hPa | 0 mm | - | - | - |
| 1777625709 | 20° C | 33% | 989.7 hPa | 0 mm | - | - | - |
| 1777625409 | 20° C | 33% | 1005.8 hPa | 0 mm | - | - | - |
| 1777625109 | 20° C | 33% | 994.4 hPa | 0 mm | - | - | - |
| 1777624928 | 20° C | 32% | 1006.3 hPa | 0 mm | - | - | - |
| 1777624809 | 20° C | 32% | 978.4 hPa | 0 mm | - | - | - |
| 1777624509 | 21.11° C | 31% | 1003.7 hPa | 0 mm | - | - | - |
| 1777624209 | 21.67° C | 30% | 1009.4 hPa | 0 mm | - | - | - |
| 1777624109 | 21.67° C | 30% | 1016.6 hPa | 0 mm | - | - | - |
| 1777623909 | 21.67° C | 30% | 992.7 hPa | 0 mm | - | - | - |
| 1777623609 | 21.67° C | 30% | 1016.6 hPa | 0 mm | - | - | - |
* Rain latest hour (hover to see other rain measurements)
** Current wind speed in m/s (hover to see current wind gust speed)